Terminal Aerodrome Forecast
Issued by NWS Charleston, WV

Current Version | Previous Version | Graphics & Text | Print | Product List | Glossary On
Versions: 1 2 3 4 5 6 7 8 9 10 11 12 13 14 15 16 17 18 19 20 21 22 23 24 25 26 27 28 29 30 31 32 33 34 35 36
000
FTUS41 KRLX 180200 AAA
TAFBKW
TAF AMD
KBKW 180226Z 1802/1824 24009G14KT P6SM BKN050
     FM180800 29009G14KT P6SM BKN030
     FM181400 30010G17KT P6SM BKN020
     FM181800 30015G26KT P6SM BKN015
     FM182000 30017G29KT P6SM BKN010=

USA.gov is the U.S. government's official web portal to all federal, state and local government web resources and services.